Weather History for Bierset, Belgium

Change the Weather History Date:

Sunday, July 28, 2013

  Actual Average Record
Temperature  
Mean Temperature 69 °F -  
Max Temperature 74 °F 71 °F 87 °F (2005)
Min Temperature 64 °F 56 °F 51 °F (1997)
Cooling Degree Days 4    
Growing Degree Days 19 (Base 50)    
Moisture  
Dew Point 60 °F    
Average Humidity 74    
Maximum Humidity 94    
Minimum Humidity 53    
Precipitation  
Precipitation 0.00 in - - ()
Sea Level Pressure  
Sea Level Pressure 29.86 in    
Wind  
Wind Speed 9 mph ()    
Max Wind Speed 18 mph    
Max Gust Speed 31 mph    
Visibility 8.0 miles    
Events Rain    
Averages and records for this station are not official NWS values.
T = Trace of Precipitation, MM = Missing Value Source: Averaged Metar Reports

Daily Weather History Graph

Daily Weather History Graph

Search for Another Location

Airport:

Trip Planner

Search our weather history database for the weather conditions in past years. The results will help you decide how hot, cold, wet, or windy it might be!

Date:

Astronomy

Jul. 28, 2013 Rise Set
Actual Time 5:59 AM CEST 9:28 PM CEST
Civil Twilight 5:19 AM CEST 10:09 PM CEST
Nautical Twilight 4:24 AM CEST 11:02 PM CEST
Astronomical Twilight 3:07 AM CEST 12:17 AM CEST
Moon 11:50 PM CEST (7/28) 1:14 PM CEST (7/28)
Length of Visible Light 16h 49m
Length of Day
15h 29m
Waning Gibbous, 63% of the Moon is Illuminated
Jul 28
Waning Gibbous
Jul 29
Last Quarter
Aug 6
New
Aug 14
First Quarter
Aug 21
Full

Hourly Weather History & Observations

Time (CEST) Temp. Dew Point Humidity Pressure Visibility Wind Dir Wind Speed Gust Speed Precip Events Conditions
12:20 AM 69.8 °F 66.2 °F 88% 29.74 in 6.2 mi WSW 15.0 mph - N/A Rain Light Rain Showers
12:50 AM 68.0 °F 64.4 °F 88% 29.74 in 6.2 mi SSW 18.4 mph 31.1 mph N/A Rain Light Rain Showers
1:20 AM 68.0 °F 64.4 °F 88% 29.74 in 6.2 mi South 8.1 mph - N/A Rain Light Rain Showers
1:50 AM 66.2 °F 64.4 °F 94% 29.71 in 6.2 mi SW 3.5 mph - N/A   Partly Cloudy
2:00 AM 67 °F 64 °F 87% 29.71 in 19 mi SW 4.5 mph - - Rain Light Rain Showers
2:20 AM 66.2 °F 62.6 °F 88% 29.71 in 6.2 mi South 8.1 mph - N/A   Partly Cloudy
2:50 AM 68.0 °F 62.6 °F 83% 29.74 in 6.2 mi South 10.4 mph - N/A   Partly Cloudy
3:20 AM 66.2 °F 62.6 °F 88% 29.74 in 6.2 mi SSW 8.1 mph - N/A   Partly Cloudy
3:50 AM 66.2 °F 62.6 °F 88% 29.74 in 6.2 mi South 11.5 mph - N/A   Partly Cloudy
4:20 AM 68.0 °F 62.6 °F 83% 29.77 in 6.2 mi South 13.8 mph - N/A   Partly Cloudy
4:50 AM 68.0 °F 64.4 °F 88% 29.77 in 6.2 mi SSW 13.8 mph - N/A   Scattered Clouds
5:00 AM 68 °F 64 °F 82% 29.77 in 19 mi SSW 13.4 mph - -   Partly Cloudy
5:20 AM 68.0 °F 62.6 °F 83% 29.77 in 6.2 mi SSW 11.5 mph - N/A   Scattered Clouds
5:50 AM 68.0 °F 62.6 °F 83% 29.80 in 6.2 mi SSW 10.4 mph - N/A   Mostly Cloudy
6:20 AM 66.2 °F 64.4 °F 94% 29.83 in 6.2 mi SW 11.5 mph - N/A   Mostly Cloudy
6:50 AM 66.2 °F 60.8 °F 83% 29.83 in 6.2 mi WSW 10.4 mph - N/A   Mostly Cloudy
7:20 AM 64.4 °F 60.8 °F 88% 29.83 in 6.2 mi WSW 10.4 mph - N/A   Scattered Clouds
7:50 AM 64.4 °F 59.0 °F 83% 29.86 in 6.2 mi WSW 11.5 mph - N/A   Mostly Cloudy
8:00 AM 65 °F 60 °F 78% 29.84 in 19 mi WSW 11.2 mph - -   Mostly Cloudy
8:20 AM 66.2 °F 59.0 °F 78% 29.86 in 6.2 mi WSW 10.4 mph - N/A   Scattered Clouds
8:50 AM 66.2 °F 59.0 °F 78% 29.86 in 6.2 mi SW 10.4 mph - N/A   Scattered Clouds
9:20 AM 66.2 °F 60.8 °F 83% 29.86 in 6.2 mi SW 10.4 mph - N/A   Partly Cloudy
9:50 AM 66.2 °F 59.0 °F 78% 29.86 in 6.2 mi WSW 10.4 mph - N/A   Partly Cloudy
10:20 AM 66.2 °F 59.0 °F 78% 29.89 in 6.2 mi WSW 11.5 mph - N/A   Partly Cloudy
10:50 AM 66.2 °F 59.0 °F 78% 29.89 in 6.2 mi SW 9.2 mph - N/A   Partly Cloudy
11:00 AM 67 °F 59 °F 69% 29.90 in 19 mi SW 8.9 mph - -   Scattered Clouds
11:20 AM 66.2 °F 59.0 °F 78% 29.89 in 6.2 mi WSW 5.8 mph - N/A   Partly Cloudy
11:50 AM 66.2 °F 59.0 °F 78% 29.92 in 6.2 mi West 9.2 mph - N/A   Partly Cloudy
12:20 PM 68.0 °F 60.8 °F 78% 29.89 in 6.2 mi West 4.6 mph - N/A   Partly Cloudy
12:50 PM 68.0 °F 59.0 °F 73% 29.89 in 6.2 mi SSW 5.8 mph - N/A   Partly Cloudy
1:20 PM 69.8 °F 59.0 °F 68% 29.89 in 6.2 mi SSW 5.8 mph - N/A   Partly Cloudy
1:50 PM 71.6 °F 59.0 °F 64% 29.92 in 6.2 mi SW 5.8 mph - N/A   Partly Cloudy
2:00 PM 72 °F 59 °F 55% 29.90 in 19 mi SW 6.7 mph - -   Scattered Clouds
2:20 PM 71.6 °F 57.2 °F 60% 29.92 in 6.2 mi WSW 10.4 mph - N/A   Partly Cloudy
2:50 PM 71.6 °F 57.2 °F 60% 29.92 in 6.2 mi SW 9.2 mph - N/A   Partly Cloudy
3:20 PM 71.6 °F 57.2 °F 60% 29.89 in 6.2 mi West 8.1 mph - N/A   Partly Cloudy
3:50 PM 71.6 °F 59.0 °F 64% 29.92 in 6.2 mi West 8.1 mph - N/A   Partly Cloudy
4:20 PM 71.6 °F 59.0 °F 64% 29.92 in 6.2 mi WSW 6.9 mph - N/A   Partly Cloudy
4:50 PM 71.6 °F 59.0 °F 64% 29.92 in 6.2 mi WSW 9.2 mph - N/A   Partly Cloudy
5:00 PM 72 °F 58 °F 53% 29.90 in 19 mi WSW 8.9 mph - -   Scattered Clouds
5:20 PM 73.4 °F 59.0 °F 61% 29.92 in 6.2 mi SW 8.1 mph - N/A   Partly Cloudy
5:50 PM 73.4 °F 59.0 °F 61% 29.92 in 6.2 mi SW 10.4 mph - N/A   Partly Cloudy
6:20 PM 73.4 °F 57.2 °F 57% 29.89 in 6.2 mi SW 9.2 mph - N/A   Partly Cloudy
6:50 PM 73.4 °F 59.0 °F 61% 29.89 in 6.2 mi SW 10.4 mph - N/A   Partly Cloudy
7:20 PM 71.6 °F 57.2 °F 60% 29.89 in 6.2 mi SW 9.2 mph - N/A   Partly Cloudy
7:50 PM 71.6 °F 59.0 °F 64% 29.92 in 6.2 mi SW 9.2 mph - N/A   Partly Cloudy
8:00 PM 72 °F 58 °F 53% 29.90 in 19 mi SW 8.9 mph - -   Scattered Clouds
8:20 PM 71.6 °F 57.2 °F 60% 29.92 in 6.2 mi SW 8.1 mph - N/A   Partly Cloudy
8:50 PM 71.6 °F 57.2 °F 60% 29.92 in 6.2 mi SW 5.8 mph - N/A   Partly Cloudy
9:20 PM 69.8 °F 57.2 °F 64% 29.92 in 6.2 mi SW 5.8 mph - N/A   Partly Cloudy
9:50 PM 68.0 °F 57.2 °F 68% 29.92 in - SW 4.6 mph - N/A   Clear
10:20 PM 69.8 °F 57.2 °F 64% 29.92 in - SSE 4.6 mph - N/A   Clear
10:50 PM 68.0 °F 59.0 °F 73% 29.92 in - SE 5.8 mph - N/A   Clear
11:20 PM 68.0 °F 57.2 °F 68% 29.95 in - South 4.6 mph - N/A   Clear
11:50 PM 68.0 °F 59.0 °F 73% 29.95 in - South 4.6 mph - N/A   Clear